{"data":{"norad_id":66267,"intl_designator":"2025-247C","name":"STARLINK-35550","alt_names":[],"object_type":"PAYLOAD","status":"ACTIVE","operator":null,"country":"US","launch_date":"2025-10-31","launch_site_code":"AFWTR","launch_vehicle":null,"mission":null,"orbit_class":"UNKNOWN","rcs_meters":null,"size_class":null,"mass_kg":null,"dimensions":null,"purposes":["comms"],"wikipedia_slug":null,"has_3d_model":false,"image_url":null,"decayed_at":null,"tle_current":{"epoch":"2026-09-20T13:12:24.589440Z","epoch_age_seconds":92369,"freshness":"FRESH","line1":"1 66267U 25247C   26263.55028460  .00016884  00000+0  51013-3 0  9995","line2":"2 66267  53.1605   1.6169 0001193  53.6559 306.4554 15.34374639 50938","mean_motion":15.34374639,"eccentricity":0.0001193,"inclination_deg":53.1605,"raan_deg":1.6169,"arg_perigee_deg":53.6559,"mean_anomaly_deg":306.4554,"bstar":0.00051013,"rev_number":5093,"period_min":93.849309249434,"perigee_km":461.96249824853,"apogee_km":463.59474071534,"semimajor_km":6840.9156194819,"source":"CELESTRAK","updated_at":"2026-09-21T09:00:35.852611Z"}}}